SCP
1 1 2 2 2 2 2 2 2 2 2 1 2 2 3 3 2 1 1 1 1 1 1 1 1 1 1 1 1 1 1 1 1 1 1 2 2 3 3 3 3 2 2
1 2 2 2 2 2 2 3 3 3 2 2 2 2 3 3 2 1 1 1 1 1 1 1 1 1 1 1 1 1 1 1 1 1 1 1 2 2 2 2 3 2 2
1 2 2 3 3 2 2 3 4 4 4 3 2 3 4 4 3 2 1 1 1 1 1 1 1 1 1 1 1 1 1 1 1 1 1 1 1 1 2 2 2 2 2
1 1 2 2 3 2 2 2 3 5 5 5 4 3 4 4 3 2 1 1 1 1 0 1 1 1 1 1 1 1 1 1 1 1 1 1 1 2 2 2 2 2 2
1 1 1 2 2 2 1 2 2 4 5 6 5 5 4 4 3 2 2 1 1 1 1 1 1 1 1 1 1 1 1 1 1 1 1 1 2 2 2 2 2 2 2
1 1 1 2 2 2 2 2 2 3 4 5 6 6 5 5 4 3 3 2 2 1 1 1 1 1 1 1 1 2 2 2 2 2 2 2 2 3 4 3 3 2 2
1 1 2 2 2 3 3 3 3 3 3 4 5 6 6 6 6 5 4 3 2 2 2 2 2 2 2 2 2 2 2 2 2 2 2 3 3 4 5 4 3 2 2
1 2 2 2 2 3 3 3 4 5 4 4 4 5 6 6 6 6 5 4 3 3 3 2 2 2 2 2 2 2 2 2 3 3 4 4 4 4 4 3 3 2 2
1 2 2 2 2 2 2 3 4 6 6 5 4 4 5 5 6 6 6 5 5 4 4 3 3 2 2 3 3 3 3 4 5 5 6 6 5 4 3 3 2 2 2
1 2 2 1 1 1 1 2 3 4 6 6 5 5 4 4 5 6 6 6 7 7 6 5 4 3 3 3 3 4 5 5 6 6 6 6 5 3 2 2 2 2 2
1 2 2 1 1 1 1 2 2 2 3 4 5 6 5 5 5 5 5 6 7 8 8 7 6 5 4 4 4 4 5 5 5 5 4 4 3 3 2 2 3 3 3
2 2 2 1 1 1 1 2 2 2 2 3 3 4 5 6 6 6 5 5 6 7 7 7 7 6 6 6 6 5 5 4 3 3 3 3 3 2 3 3 3 3 3
2 2 2 2 2 2 2 2 2 2 3 3 3 3 4 5 7 7 6 5 5 5 5 6 6 6 6 7 7 7 6 5 3 3 4 4 3 3 3 3 3 3 3
2 2 3 3 3 3 3 4 4 5 5 4 4 4 4 4 5 6 7 8 7 6 6 5 5 5 6 7 8 8 8 6 4 4 5 4 3 2 3 3 4 4 4
3 3 3 3 3 4 4 5 6 7 7 7 6 5 4 4 4 5 6 8 10 10 9 7 5 5 5 5 7 8 7 6 5 5 5 4 2 2 2 3 3 4 4
3 4 4 4 4 4 5 5 6 6 7 6 6 5 4 4 4 5 6 7 9 11 12 9 6 4 4 3 4 5 6 5 5 5 4 3 3 2 2 2 2 3 4
4 4 4 4 4 3 5 6 5 5 5 4 4 4 5 5 5 6 7 7 7 8 9 9 6 4 3 2 2 3 4 5 6 5 5 4 3 3 3 2 2 2 2
4 4 4 4 4 4 5 5 4 3 3 3 3 4 5 6 6 7 7 7 7 7 7 6 5 4 3 2 1 2 4 5 5 5 5 5 4 3 2 2 2 2 2
3 3 3 3 4 4 4 4 3 3 3 4 4 4 5 6 7 7 6 7 8 8 7 6 5 4 3 2 1 2 4 5 5 5 5 4 3 2 2 2 2 2 2
4 4 3 3 4 4 3 3 3 3 5 6 6 5 5 7 7 7 7 8 9 10 9 7 6 5 4 3 2 2 5 6 6 6 4 3 2 1 1 1 1 1 1
5 5 4 3 3 3 3 3 3 5 5 6 6 6 5 6 6 6 7 8 10 10 9 7 6 5 4 4 2 2 5 7 7 6 5 3 1 1 0 1 1 1 1
4 4 4 4 3 3 4 4 5 5 5 6 7 6 6 6 6 5 6 7 8 9 8 6 6 6 5 4 3 2 3 5 6 6 5 3 1 0 0 0 0 1 0
3 4 4 4 5 5 6 5 5 5 6 6 6 6 7 7 5 4 4 5 7 7 7 7 7 7 7 5 3 2 2 3 4 5 4 2 1 0 0 0 0 0 1
4 4 4 5 6 7 7 6 5 5 6 6 6 6 6 6 5 4 5 6 7 8 8 8 8 9 8 7 5 3 3 2 3 4 3 2 1 1 1 2 2 2 2
5 5 5 5 6 7 7 6 5 5 5 6 7 7 6 6 6 5 6 6 7 8 8 8 8 8 7 6 5 4 3 3 3 3 3 3 3 3 3 3 4 4 4
5 6 5 5 6 5 5 6 5 5 5 7 8 8 7 7 6 6 6 6 6 6 6 6 7 6 5 4 3 3 3 3 3 3 4 4 4 4 4 4 5 5 5
Wind_Speed
8 9 9 9 8 7 7 6 5 5 4 3 3 2 2 2 2 2 2 2 1 2 1 0 2 1 1 1 1 1 2 1 1 1 1 1 1 1 0 0 1 1 0
9 10 10 10 10 9 8 7 7 6 5 3 2 1 1 2 2 1 2 2 2 2 2 1 1 1 1 2 1 1 0 1 1 1 1 1 2 1 1 1 0 1 1
10 11 11 11 10 10 9 7 7 6 6 5 4 3 3 2 2 3 3 2 3 3 2 2 1 1 1 2 2 1 1 0 1 1 2 1 1 0 1 0 0 0 1
10 11 11 11 11 10 9 8 8 7 6 6 5 5 3 3 2 2 2 2 3 3 3 3 2 2 1 1 2 2 1 2 1 1 0 2 2 2 0 1 1 1 1
10 11 11 11 10 10 9 9 8 7 7 6 6 5 4 3 3 2 2 3 3 3 3 3 3 2 2 1 1 1 2 2 1 1 0 1 1 2 2 1 1 1 1
10 10 10 10 9 9 9 9 9 8 8 7 7 6 5 4 3 3 3 3 3 3 3 3 3 3 2 2 2 3 3 2 2 2 2 1 1 2 2 2 2 1 1
9 9 10 10 10 10 9 8 9 9 8 8 7 7 6 6 5 4 3 3 2 3 3 3 3 3 3 3 3 3 3 3 3 3 2 2 2 2 2 2 2 2 1
8 8 9 9 9 9 9 9 9 8 8 8 7 6 7 5 4 4 3 3 2 2 2 3 4 4 4 4 3 3 3 3 3 4 3 3 2 2 2 2 2 2 2
7 7 8 8 8 9 9 9 9 8 8 8 7 7 6 5 4 4 4 3 2 2 3 3 3 3 3 3 3 3 3 3 4 3 4 4 2 2 2 2 3 3 3
7 7 7 7 7 7 7 7 7 7 7 7 7 6 6 6 5 4 3 3 3 3 3 3 3 3 3 4 4 3 3 4 3 3 3 3 3 2 3 3 3 3 4
5 5 5 6 6 6 7 7 7 7 7 6 5 5 6 5 5 5 4 3 3 3 3 3 3 4 4 4 3 4 3 4 4 4 3 4 4 3 3 3 2 3 3
4 5 5 5 5 6 6 6 6 6 6 6 6 6 5 5 5 5 4 4 3 4 3 3 4 4 4 3 4 4 4 4 4 4 3 4 3 3 3 3 3 3 3
3 4 4 4 4 5 5 5 6 6 5 6 6 5 5 5 5 4 4 4 4 4 4 4 4 4 3 3 4 4 4 4 4 3 3 3 3 3 2 3 3 3 2
4 4 4 4 4 4 4 4 5 5 5 5 5 4 4 4 4 3 3 4 4 4 4 4 4 4 3 3 3 4 4 4 3 3 3 3 3 3 3 3 3 3 3
3 4 4 4 4 4 4 4 4 4 4 5 4 4 4 4 4 3 3 3 3 3 3 3 3 3 3 3 2 3 3 3 3 3 3 2 1 2 2 3 2 3 3
3 3 3 4 4 4 4 5 4 4 5 5 5 4 4 4 4 4 4 3 3 3 3 4 4 4 3 1 0 4 3 3 3 3 3 3 4 2 3 2 2 3 4
2 2 2 3 3 4 4 4 4 4 5 5 4 5 5 5 4 5 4 4 3 3 3 3 4 4 2 2 2 4 4 3 3 3 3 3 1 3 2 2 4 4 4
2 2 2 3 3 3 4 4 4 4 4 4 4 4 4 5 4 4 3 3 3 3 4 4 4 3 2 3 4 4 5 3 3 3 2 2 1 0 2 3 3 3 3
2 2 2 3 3 3 3 4 4 4 4 4 4 4 4 4 4 4 3 3 3 3 4 4 4 3 2 3 3 4 4 2 2 2 1 1 1 2 1 3 3 3 3
2 2 2 3 3 2 2 3 3 3 3 3 3 3 4 4 4 3 3 3 3 3 4 3 3 3 3 3 4 5 3 2 2 2 2 2 1 1 1 3 3 3 3
3 3 2 2 2 2 2 2 2 2 2 2 2 2 3 3 3 3 3 3 3 3 2 2 2 2 2 3 4 4 3 2 2 2 1 2 4 2 2 4 3 3 4
2 3 3 2 2 1 2 2 1 1 1 2 2 2 2 2 2 3 3 3 3 3 3 3 2 2 1 1 3 4 3 3 2 2 1 2 3 2 4 4 2 3 5
2 2 3 2 2 1 1 1 1 1 2 2 2 2 2 1 1 2 3 4 4 3 2 2 2 1 1 2 3 4 3 3 2 1 1 1 2 3 4 5 4 5 4
2 2 2 2 2 1 0 1 1 2 2 2 2 2 2 2 2 2 2 2 2 2 2 2 2 1 1 1 1 2 2 4 4 2 3 5 6 5 3 3 4 4 3
2 2 2 2 2 1 1 1 1 2 2 3 2 2 2 2 1 1 0 1 1 1 2 2 1 1 1 1 1 1 1 1 0 2 2 2 2 2 2 2 2 2 2
2 2 2 2 2 1 1 1 1 2 2 3 3 2 2 2 2 1 1 2 0 2 1 1 2 1 1 3 2 0 0 0 1 3 2 2 2 2 2 2 2 2 2
Wind_Direction
181 176 180 180 178 180 180 184 187 177 191 192 201 186 177 181 165 158 143 171 183 159 195 120 135 166 115 98 115 126 131 132 153 172 158 146 144 96 109 54 23 66 358
181 181 183 184 185 183 186 188 189 184 191 181 200 199 206 200 172 162 152 190 195 204 184 189 193 157 146 136 139 153 313 98 98 298 256 181 156 167 90 118 124 352 328
188 183 186 190 189 187 190 191 190 188 192 187 191 184 189 208 185 184 181 192 200 206 218 200 224 202 211 153 185 188 202 167 146 329 318 327 42 347 148 175 215 307 321
190 188 187 190 193 190 187 188 187 188 188 191 199 200 200 203 194 200 177 191 198 208 204 213 214 232 233 166 205 161 225 231 208 157 319 341 351 301 283 205 174 195 275
192 190 189 187 191 189 188 185 185 188 189 195 195 205 210 206 200 196 183 215 192 209 208 208 215 224 232 221 264 201 242 247 274 292 262 232 222 258 287 309 301 258 265
188 188 185 182 186 187 189 186 184 189 191 195 199 206 209 210 207 208 198 208 192 200 203 212 213 220 229 217 230 230 220 250 276 285 286 273 270 273 281 281 274 304 333
178 181 182 183 186 187 188 188 187 190 194 197 201 202 206 209 209 218 206 225 218 199 197 216 215 223 226 229 233 228 246 230 239 255 266 269 269 278 285 287 301 308 293
172 177 180 182 185 187 189 188 188 194 195 198 200 203 209 216 209 213 237 219 236 223 196 216 222 227 230 232 227 239 233 234 244 255 264 268 263 265 267 274 289 287 262
172 176 179 180 182 182 185 189 186 188 194 198 198 201 207 216 219 212 225 231 234 226 203 217 224 228 227 234 232 239 240 240 246 250 239 252 258 254 266 269 275 283 289
170 172 175 178 183 185 182 186 187 184 188 195 203 196 202 208 215 224 227 240 241 245 235 228 227 227 227 228 237 243 233 240 241 255 269 263 260 261 257 259 263 271 281
169 168 170 175 180 184 182 182 185 185 187 195 199 207 204 203 209 216 223 227 237 237 238 230 232 232 230 233 238 255 249 246 251 255 250 257 278 275 274 266 260 256 263
161 163 165 171 174 181 185 180 187 187 187 189 198 202 200 204 209 208 213 220 225 233 233 236 231 234 233 238 242 250 251 251 251 252 256 260 257 265 278 282 273 270 266
154 158 161 166 172 180 184 185 190 190 186 187 197 197 199 203 212 207 204 215 222 229 230 231 235 235 235 238 246 247 246 249 254 254 256 262 263 262 277 278 282 278 268
153 161 161 165 165 176 185 184 185 186 184 191 199 194 204 210 212 208 210 215 222 230 233 230 235 238 242 248 249 248 248 250 255 256 256 258 260 262 266 261 267 279 277
149 155 169 165 167 173 178 179 179 178 183 184 193 195 202 207 211 204 210 215 225 228 229 235 234 238 238 243 259 259 246 251 250 243 249 251 260 324 293 294 286 271 267
135 145 159 161 168 177 181 177 180 183 185 187 188 189 197 198 200 207 213 216 221 232 228 229 233 236 244 91 271 280 260 247 248 240 242 226 198 197 209 245 285 290 271
133 146 159 168 164 169 171 172 178 183 187 193 192 191 195 199 203 210 206 214 222 227 228 228 230 236 226 162 194 245 260 251 252 251 251 261 146 203 231 202 214 228 235
133 140 154 159 165 158 165 170 175 181 187 192 193 194 195 196 199 206 210 217 215 220 225 231 236 236 217 170 196 230 227 237 233 233 231 255 262 346 295 263 253 253 238
124 133 148 145 139 146 159 170 175 175 190 197 197 198 198 196 196 197 207 220 229 231 228 227 233 238 217 168 188 230 224 210 212 217 200 222 231 79 311 261 264 271 262
113 111 124 119 114 122 150 175 178 179 190 196 198 198 202 198 195 196 206 214 222 231 236 228 227 230 228 171 183 224 241 222 220 197 186 145 172 106 203 249 256 268 281
105 106 108 109 114 130 153 179 177 180 190 194 193 192 204 204 192 193 201 208 213 218 234 238 229 230 234 178 184 212 245 253 245 238 230 124 136 162 202 255 270 280 285
117 115 112 113 115 144 176 193 192 189 177 179 186 185 195 215 175 180 196 202 206 197 203 212 231 230 202 204 183 192 225 272 263 264 282 87 133 191 219 236 269 275 269
130 140 136 128 122 141 188 197 166 171 177 166 163 164 163 164 188 194 194 200 204 217 216 213 215 214 179 146 159 181 199 228 242 256 98 162 199 219 219 213 231 244 249
135 145 141 137 126 119 146 157 147 167 169 160 153 154 160 161 172 222 226 231 228 221 219 224 219 200 182 152 151 178 184 192 206 224 189 198 211 229 247 222 216 238 265
143 153 142 138 130 124 123 148 142 166 168 164 169 172 169 162 183 201 319 267 275 307 270 267 260 245 228 75 56 275 253 265 287 259 239 245 238 238 243 246 253 258 252
143 152 155 149 136 140 144 118 150 187 187 185 187 196 197 183 202 186 153 47 23 74 52 298 280 252 105 125 109 77 16 245 250 252 243 253 263 267 269 266 260 256 263